This demonstration page uses our WeatherBlox Daily Observations layout. Learn more.

Left ArrowRight Arrow

39.51506, -84.39828

Hourly Observations for June 19, 2021

Temp ( °F °C ) Dew Point ( °F °C ) Humidity (%) Winds ( mph kmh ) Pressure ( in mb ) Visibility ( mi km ) Precip ( " mm )
12:15 am 00:15 Clear 68 20 N/A N/A SSW 13 20 29.91 1013 10 16 N/A
12:35 am 00:35 Partly Cloudy with Nearby Thunderstorms 68 20 N/A N/A SSW 14 22 29.92 1013 10 16 N/A
12:55 am 00:55 Clear with Nearby Thunderstorms 68 20 N/A N/A SSW 12 19 29.92 1013 10 16 N/A
1:15 am 01:15 Partly Cloudy with Thunderstorms 68 20 N/A N/A SSW 10 17 29.92 1013 7 11 N/A
1:35 am 01:35 Cloudy with Thunderstorms 68 20 N/A N/A SSW 14 22 29.93 1014 10 16 N/A
1:55 am 01:55 Cloudy with Thunderstorms 68 20 N/A N/A NE 10 17 29.94 1014 7 11 0.05 1.27
2:15 am 02:15 Cloudy with Thunderstorms 69 20.6 68 20 96 96 S 7 11 29.96 1015 10 16 0.02 0.51
2:35 am 02:35 Cloudy with Thunderstorms 69 20.4 68 20.2 99 99 SE 9 15 29.95 1014 7 11 0.05 1.27
2:55 am 02:55 Cloudy 69 20.3 68 20.2 99 99 SE 9 15 29.93 1014 10 16 0.07 1.78
3:15 am 03:15 Cloudy with Light Rain 69 20.7 68 20.1 96 96 SSE 12 19 29.93 1014 10 16 N/A
3:35 am 03:35 Cloudy 69 20.8 68 20.2 96 96 S 12 19 29.92 1013 10 16 0.01 0.25
3:55 am 03:55 Mostly Cloudy with Rain 69 20.5 68 20 97 97 SSW 9 15 29.93 1014 10 16 0.03 0.76
4:15 am 04:15 Cloudy with Rain 68 20.1 68 20 99 99 SSW 12 19 29.94 1014 10 16 0.02 0.51
4:35 am 04:35 Cloudy with Thunderstorms 68 20 68 20 100 100 S 13 20 29.95 1014 10 16 0.06 1.52
4:55 am 04:55 Cloudy with Thunderstorms 68 20 N/A N/A S 21 33 29.91 1013 7 11 0.12 3.05
5:15 am 05:15 Cloudy 68 20 N/A N/A S 18 30 29.92 1013 7 11 0.05 1.27
5:35 am 05:35 Cloudy with Light Rain 68 20 N/A N/A SW 16 26 29.93 1014 10 16 0.07 1.78
5:55 am 05:55 Cloudy with Rain 68 20 N/A N/A SW 16 26 29.95 1014 7 11 0.13 3.30
6:15 am 06:15 Cloudy with Rain 68 20 N/A N/A SW 9 15 29.95 1014 7 11 0.07 1.78
6:35 am 06:35 Cloudy with Rain 68 20 N/A N/A SSW 8 13 29.94 1014 7 11 0.15 3.81
6:55 am 06:55 Cloudy with Rain 68 20 N/A N/A WSW 8 13 29.96 1015 7 11 0.21 5.33
7:15 am 07:15 Cloudy with Rain 66 19 N/A N/A SW 8 13 30.00 1016 5 8 0.06 1.52
7:35 am 07:35 Cloudy with Rain 68 20 N/A N/A SSW 8 13 29.98 1015 4 6 0.12 3.05
7:55 am 07:55 Cloudy with Nearby Thunderstorms 66 19 N/A N/A WSW 8 13 30.01 1016 5 8 0.17 4.32
8:15 am 08:15 Cloudy with Nearby Thunderstorms 66 19 N/A N/A WSW 9 15 30.02 1016 5 8 0.08 2.03
8:35 am 08:35 Cloudy 66 19 N/A N/A SW 10 17 30.02 1016 7 11 0.16 4.06
8:55 am 08:55 Cloudy with Thunderstorms 66 19 N/A N/A SW 9 15 30.02 1016 7 11 0.22 5.59
9:15 am 09:15 Cloudy with Thunderstorms 66 19 N/A N/A S 8 13 29.99 1015 7 11 0.08 2.03
9:35 am 09:35 Cloudy with Rain 66 19 N/A N/A SSE 21 33 29.87 1011 4 6 0.15 3.81
9:55 am 09:55 Partly Cloudy 66 19 N/A N/A S 13 20 29.89 1012 10 16 0.15 3.81
10:15 am 10:15 Mostly Cloudy 68 20 N/A N/A SSW 13 20 29.88 1012 10 16 N/A
10:35 am 10:35 Partly Cloudy 68 20.2 68 20.2 100 100 SSW 14 22 29.87 1012 10 16 N/A
10:55 am 10:55 Mostly Cloudy 71 21.4 69 20.8 96 96 SSW 16 26 29.86 1011 10 16 N/A
11:15 am 11:15 Mostly Cloudy 71 21.5 68 20.2 92 92 SSW 10 17 29.86 1011 10 16 N/A
11:35 am 11:35 Mostly Cloudy 72 22.3 68 20.1 87 87 SSW 10 17 29.85 1011 10 16 N/A
11:55 am 11:55 Partly Cloudy 75 23.8 68 19.9 79 79 SSW 10 17 29.85 1011 10 16 N/A
12:15 pm 12:15 Cloudy 74 23.6 67 19.4 77 77 SSW 12 19 29.85 1011 10 16 N/A
12:35 pm 12:35 Mostly Cloudy 75 23.7 69 20.5 82 82 SW 9 15 29.86 1011 10 16 N/A
12:55 pm 12:55 Mostly Cloudy 76 24.7 67 19.7 74 74 SSW 14 22 29.86 1011 10 16 N/A
1:15 pm 13:15 Partly Cloudy 77 24.8 67 19.2 71 71 SW 15 24 29.87 1012 10 16 N/A
1:35 pm 13:35 Sunny 76 24.4 67 19.3 73 73 SW 20 31 29.86 1011 10 16 N/A
1:55 pm 13:55 Sunny 75 23.9 66 19.1 75 75 SW 18 30 29.88 1012 10 16 N/A
2:15 pm 14:15 Sunny 76 24.2 68 19.9 77 77 SW 16 26 29.87 1011 10 16 N/A
2:35 pm 14:35 Sunny 76 24.3 68 19.9 77 77 SW 13 20 29.86 1011 10 16 N/A
2:55 pm 14:55 Sunny 77 25 68 20.1 74 74 WSW 13 20 29.85 1011 10 16 N/A
3:15 pm 15:15 Sunny 77 24.9 67 19.5 72 72 WSW 13 20 29.84 1011 10 16 N/A
3:35 pm 15:35 Sunny 78 25.4 68 19.9 72 72 SW 10 17 29.83 1010 10 16 N/A
3:55 pm 15:55 Sunny 79 26.2 69 20.3 70 70 W 13 20 29.82 1010 10 16 N/A
4:15 pm 16:15 Sunny 80 26.5 68 20.1 68 68 WSW 12 19 29.82 1010 10 16 N/A
4:35 pm 16:35 Sunny 80 26.9 68 20.1 66 66 WSW 13 20 29.81 1009 10 16 N/A
4:55 pm 16:55 Sunny 81 27.3 68 20.2 65 65 SW 14 22 29.81 1009 10 16 N/A
5:15 pm 17:15 Sunny 82 27.5 69 20.3 65 65 SW 14 22 29.81 1009 10 16 N/A
5:35 pm 17:35 Cloudy 80 26.4 70 20.9 72 72 SSW 13 20 29.80 1009 10 16 N/A
5:55 pm 17:55 Mostly Cloudy 81 27.2 69 20.5 67 67 SW 14 22 29.79 1009 10 16 N/A
6:15 pm 18:15 Mostly Cloudy 82 27.5 70 21.1 68 68 SW 13 20 29.79 1009 10 16 N/A
6:35 pm 18:35 Partly Cloudy 80 26.8 70 21 71 71 WSW 13 20 29.80 1009 10 16 N/A
6:55 pm 18:55 Cloudy 80 26.7 70 21.1 71 71 SW 10 17 29.80 1009 10 16 N/A
7:15 pm 19:15 Cloudy 80 26.6 71 21.7 75 75 WSW 10 17 29.81 1009 10 16 N/A
7:35 pm 19:35 Cloudy 80 26.5 71 21.6 75 75 WSW 10 17 29.81 1009 10 16 N/A
7:55 pm 19:55 Cloudy 79 26.2 71 21.8 77 77 SW 8 13 29.81 1009 10 16 N/A
8:15 pm 20:15 Mostly Cloudy 78 25.6 72 22.3 82 82 WSW 6 9 29.81 1010 10 16 N/A
8:35 pm 20:35 Cloudy 77 25.2 73 22.8 87 87 W 3 6 29.81 1010 10 16 N/A
8:55 pm 20:55 Cloudy 76 24.7 73 22.9 90 90 W 5 7 29.81 1010 10 16 N/A
9:15 pm 21:15 Clear 74 23.6 73 22.8 95 95 N N/A 29.81 1009 10 16 N/A
9:35 pm 21:35 Mostly Cloudy with Mist and Fog 72 22 72 22 100 100 N N/A 29.81 1009 7 11 N/A
9:55 pm 21:55 Cloudy with Haze 72 22 N/A N/A N N/A 29.81 1009 7 11 N/A
10:15 pm 22:15 Cloudy with Haze 72 22 N/A N/A N N/A 29.82 1010 7 11 N/A
10:35 pm 22:35 Cloudy 72 22 N/A N/A N N/A 29.83 1010 7 11 N/A
10:55 pm 22:55 Cloudy with Haze 72 22 N/A N/A N N/A 29.83 1010 7 11 N/A
11:15 pm 23:15 Cloudy with Haze 73 23 N/A N/A N N/A 29.83 1010 7 11 N/A
11:35 pm 23:35 Mostly Cloudy with Haze 72 22 N/A N/A N N/A 29.82 1010 7 11 N/A
11:55 pm 23:55 Hazy 72 22 N/A N/A N N/A 29.82 1010 5 8 N/A

Powered by AerisWeather